Stations météo

réclame
Mon MeteoGroup
Aurillac, France (7549): Température de l'air & dewpoint: 22.05.2018 12:00:00 - 28.05.2018 12:00:00 (CEST)Aurillac, France (7549): Température de l'air 5cm: 22.05.2018 12:00:00 - 28.05.2018 12:00:00 (CEST)Aurillac, France (7549): Température de l'air -20cm & Température de l'air -100cm: 22.05.2018 12:00:00 - 28.05.2018 12:00:00 (CEST)Aurillac, France (7549): Vitesse du vent & gusts: 22.05.2018 12:00:00 - 28.05.2018 12:00:00 (CEST)Aurillac, France (7549): Direction du vent: 22.05.2018 12:00:00 - 28.05.2018 12:00:00 (CEST)Aurillac, France (7549): reduced air pressure: 22.05.2018 12:00:00 - 28.05.2018 12:00:00 (CEST)Aurillac, France (7549): visibility: 22.05.2018 12:00:00 - 28.05.2018 12:00:00 (CEST)Aurillac, France (7549): Ensoleillement: 22.05.2018 12:00:00 - 28.05.2018 12:00:00 (CEST)Aurillac, France (7549): Quantités de précipitations: 22.05.2018 12:00:00 - 28.05.2018 12:00:00 (CEST)
Date & Time tt [°C] td [°C] tt 5cm [°C] tt -20cm [°C] tt -100cm [°C] ff [km/h] ff [knt] fx [km/h] fx [knt] dd ppp [hPa] vv [km] sd [min] rr [mm]
28.05.2018 12:00:00 - - - - - - - - - - - - - -
28.05.2018 11:00:00 18,1 13,2 17,8 15,9 12,8 7 4 11 6 SW 1014,3 18 0 0,0
28.05.2018 10:00:00 17,2 14,5 16,4 15,9 12,8 5 3 11 6 SE 1014,6 14 0 0,2
28.05.2018 09:00:00 15,5 12,6 14,5 15,9 12,8 8 5 13 7 ESE 1014,9 17 0 0,0
28.05.2018 08:00:00 14,0 12,0 12,8 16,0 12,8 3 2 5 3 ESE 1015,0 16 0 0,0
28.05.2018 07:00:00 13,8 11,7 12,4 16,0 12,8 3 2 5 3 ESE 1014,6 17 0 0,0
28.05.2018 06:00:00 14,2 11,5 12,3 16,0 12,8 0 0 3 2 N 1014,5 10 0 0,0
28.05.2018 05:00:00 14,4 11,5 12,0 16,0 12,8 3 1 10 6 ENE 1014,4 19 0 0,0
28.05.2018 04:00:00 14,7 11,7 13,2 16,1 12,8 8 5 13 7 E 1014,7 19 0 0,0
28.05.2018 03:00:00 15,1 11,9 13,9 16,1 12,8 7 4 17 9 SE 1014,9 19 0 0,0
28.05.2018 02:00:00 15,6 12,2 13,9 16,1 12,8 10 6 15 8 E 1015,4 19 0 0,0
28.05.2018 01:00:00 16,0 12,5 13,6 16,1 12,8 10 5 16 8 E 1015,9 19 0 0,0
28.05.2018 00:00:00 16,5 12,6 15,2 16,0 12,8 11 6 16 9 ESE 1015,9 20 0 0,0
27.05.2018 23:00:00 16,9 12,8 15,3 16,0 12,8 8 5 14 8 ESE 1015,8 19 0 0,0
27.05.2018 22:00:00 17,2 12,9 15,6 16,0 12,8 5 3 10 5 SSE 1015,5 20 0 0,0
27.05.2018 21:00:00 18,4 13,3 17,0 15,9 12,8 9 5 18 10 ESE 1014,0 20 0 0,0
27.05.2018 20:00:00 20,5 13,9 20,5 15,9 12,7 14 7 24 13 ESE 1013,2 20 55 0,0
27.05.2018 19:00:00 21,7 12,8 23,0 15,8 12,7 4 2 10 5 SSE 1012,5 19 24 0,0
27.05.2018 18:00:00 21,1 14,3 25,9 15,8 12,7 4 2 16 8 E 1012,7 19 40 0,0
27.05.2018 17:00:00 20,4 14,7 21,9 15,8 12,7 14 8 20 11 ENE 1012,9 18 22 0,0
27.05.2018 16:00:00 18,7 16,3 19,0 15,8 12,7 7 4 9 5 E 1014,5 12 0 0,0
27.05.2018 15:00:00 17,3 15,1 17,7 15,8 12,7 4 2 13 7 WSW 1015,6 14 0 0,4
27.05.2018 14:00:00 16,4 15,3 15,6 15,8 12,7 8 4 19 11 W 1015,5 13 0 0,2
27.05.2018 13:00:00 18,3 14,8 17,2 15,9 12,7 7 4 16 8 NNW 1015,0 15 0 0,2
27.05.2018 12:00:00 19,7 12,9 19,0 15,9 12,7 5 3 11 6 E 1014,4 18 0 0,0
27.05.2018 11:00:00 18,3 12,9 15,5 15,9 12,7 8 4 19 11 E 1014,8 18 12 0,2
27.05.2018 10:00:00 18,7 12,0 14,2 15,9 12,7 9 5 16 9 ESE 1014,6 20 0 0,0
27.05.2018 09:00:00 16,6 11,1 14,1 16,0 12,7 9 5 15 8 E 1015,4 18 0 0,4
27.05.2018 08:00:00 16,4 10,3 14,8 16,0 12,7 9 5 16 9 E 1014,8 20 0 0,0
27.05.2018 07:00:00 16,5 9,2 15,2 16,1 12,7 10 5 20 11 ESE 1014,9 20 0 0,0
27.05.2018 06:00:00 16,9 8,8 14,1 16,1 12,7 14 7 24 13 ESE 1014,5 60 0 0,0
27.05.2018 05:00:00 17,2 8,9 13,6 16,2 12,7 19 11 32 17 SE 1014,3 60 0 0,0
27.05.2018 04:00:00 16,3 8,8 13,0 16,2 12,7 13 7 22 12 ESE 1014,9 60 0 0,0
27.05.2018 03:00:00 17,0 8,2 14,2 16,2 12,7 7 4 29 16 ESE 1015,0 60 0 0,0
27.05.2018 02:00:00 16,9 8,6 11,7 16,2 12,6 10 5 22 12 SE 1015,5 20 0 0,0
27.05.2018 01:00:00 17,2 8,3 12,4 16,2 12,7 3 1 15 8 E 1015,8 60 0 0,0
27.05.2018 00:00:00 17,8 7,5 13,7 16,2 12,7 6 4 24 13 ESE 1015,3 20 0 0,0
26.05.2018 23:00:00 18,8 8,2 15,0 16,2 12,6 11 6 26 14 ESE 1014,6 60 0 0,0
26.05.2018 22:00:00 18,7 8,6 15,2 16,1 12,6 9 5 23 13 ESE 1013,9 18 0 0,0
26.05.2018 21:00:00 20,5 9,4 18,0 16,1 12,6 11 6 49 26 SE 1013,3 48 41 0,0
26.05.2018 20:00:00 22,1 9,6 21,5 16,0 12,6 20 11 48 26 SSE 1012,4 12 51 0,0
26.05.2018 19:00:00 23,3 9,3 25,8 16,0 12,6 31 17 56 31 SSE 1011,8 14 60 0,0
26.05.2018 18:00:00 23,8 8,2 23,4 15,9 12,6 35 19 68 37 SSE 1012,0 19 34 0,0
26.05.2018 17:00:00 23,4 9,4 23,2 15,8 12,6 29 16 49 26 SSE 1012,4 19 13 0,0
26.05.2018 16:00:00 22,4 9,2 22,1 15,8 12,6 27 15 50 27 SE 1012,7 18 0 0,0
26.05.2018 15:00:00 22,5 9,6 21,3 15,7 12,6 31 17 50 27 SE 1012,7 16 9 0,0
26.05.2018 14:00:00 21,9 10,7 21,5 15,7 12,6 24 13 59 32 SE 1012,9 20 26 0,0
26.05.2018 13:00:00 24,3 11,3 29,2 15,6 12,6 32 17 60 33 SSE 1012,1 10 60 0,0
26.05.2018 12:00:00 23,6 10,3 28,2 15,7 12,6 32 17 55 30 SE 1011,9 16 60 0,0
26.05.2018 11:00:00 23,3 11,7 24,7 15,7 12,6 21 11 48 26 SE 1011,8 17 60 0,0
26.05.2018 10:00:00 20,9 10,1 17,5 15,7 12,6 29 15 46 25 SE 1012,9 18 40 0,0
26.05.2018 09:00:00 18,0 8,3 16,8 15,8 12,5 25 13 42 23 ESE 1014,1 20 0 0,0
26.05.2018 08:00:00 17,6 7,9 15,9 15,9 12,6 23 12 35 19 SE 1014,1 20 0 0,0
26.05.2018 07:00:00 17,1 7,2 15,3 15,9 12,6 21 11 55 30 SE 1013,7 60 0 0,0
26.05.2018 06:00:00 17,6 3,5 14,9 16,0 12,6 26 14 51 28 SE 1013,4 60 0 0,0
26.05.2018 05:00:00 17,2 1,6 14,5 16,0 12,5 17 9 29 16 ESE 1012,5 60 0 0,0
26.05.2018 04:00:00 17,6 0,7 14,2 16,0 12,5 15 8 25 13 E 1012,8 60 0 0,0
26.05.2018 03:00:00 17,8 2,1 14,7 16,1 12,5 9 5 23 12 E 1013,3 60 0 0,0
26.05.2018 02:00:00 17,2 4,5 13,9 16,0 12,5 13 7 19 10 E 1013,5 20 0 0,0
26.05.2018 01:00:00 16,9 7,5 13,5 16,1 12,5 11 6 17 9 E 1013,9 60 0 0,0
26.05.2018 00:00:00 16,5 9,9 13,4 16,0 12,5 12 6 16 9 ESE 1014,0 20 0 0,0
25.05.2018 23:00:00 17,6 11,6 12,7 16,0 12,5 9 5 12 7 E 1013,9 19 0 0,0
25.05.2018 22:00:00 19,0 12,7 13,3 16,0 12,5 6 3 10 5 ESE 1013,4 20 0 0,0
25.05.2018 21:00:00 20,9 12,6 17,9 15,9 12,5 4 2 12 6 ESE 1012,2 20 52 0,0
25.05.2018 20:00:00 22,1 12,1 22,1 15,8 12,5 6 3 18 10 ESE 1011,8 17 56 0,0
25.05.2018 19:00:00 22,6 11,0 25,2 15,8 12,5 10 5 24 13 SE 1011,6 19 60 0,0
25.05.2018 18:00:00 21,1 14,0 19,1 15,7 12,5 10 6 16 9 ESE 1012,4 17 19 0,0
25.05.2018 17:00:00 19,1 13,1 14,7 15,6 12,5 8 4 45 25 E 1013,0 19 0 0,6
25.05.2018 16:00:00 20,0 10,4 18,8 15,6 12,5 12 7 22 12 ESE 1013,4 60 0 0,0
25.05.2018 15:00:00 21,2 13,4 23,0 15,5 12,5 12 7 26 14 SSE 1013,7 19 0 0,0
25.05.2018 14:00:00 22,4 12,6 24,2 15,5 12,5 12 6 25 13 S 1013,8 16 0 0,0
25.05.2018 13:00:00 22,6 10,1 25,5 15,4 12,5 15 8 27 15 S 1013,8 17 51 0,0
25.05.2018 12:00:00 23,5 11,5 28,0 15,4 12,5 16 8 27 15 SSE 1013,4 17 60 0,0
25.05.2018 11:00:00 22,3 13,1 24,9 15,5 12,5 15 8 24 13 SE 1013,5 19 55 0,0
25.05.2018 10:00:00 21,1 12,5 23,9 15,5 12,5 13 7 21 11 ESE 1014,0 17 60 0,0
25.05.2018 09:00:00 18,7 13,1 18,5 15,5 12,4 9 5 15 8 E 1014,7 15 60 0,0
25.05.2018 08:00:00 16,0 12,2 12,3 15,6 12,5 8 4 13 7 E 1015,3 17 60 0,0
25.05.2018 07:00:00 13,0 11,2 11,7 15,6 12,4 10 5 12 6 ESE 1016,1 14 0 0,0
25.05.2018 06:00:00 13,6 11,5 12,2 15,7 12,4 9 5 13 7 E 1015,8 16 0 0,0
25.05.2018 05:00:00 13,7 11,4 12,1 15,7 12,4 10 5 15 8 E 1015,9 16 0 0,0
25.05.2018 04:00:00 13,9 11,2 12,7 15,7 12,4 14 7 20 11 E 1016,2 19 0 0,0
25.05.2018 03:00:00 13,8 11,1 11,9 15,7 12,4 12 6 17 9 E 1016,5 19 0 0,0
25.05.2018 02:00:00 13,2 11,3 11,4 15,7 12,4 11 6 16 9 E 1017,2 17 0 0,0
25.05.2018 01:00:00 13,6 11,8 10,8 15,7 12,4 7 4 10 5 E 1017,2 16 0 0,0
25.05.2018 00:00:00 14,4 12,3 11,7 15,7 12,4 8 4 9 5 E 1017,1 17 0 0,0
24.05.2018 23:00:00 15,1 12,8 12,2 15,6 12,4 8 4 9 5 E 1016,8 18 0 0,0
24.05.2018 22:00:00 16,4 12,7 12,2 15,6 12,4 5 3 9 5 E 1016,0 20 0 0,0
24.05.2018 21:00:00 19,3 12,3 16,8 15,5 12,4 5 3 6 3 ESE 1015,1 20 10 0,0
24.05.2018 20:00:00 21,2 11,8 21,7 15,4 12,4 2 1 10 6 ESE 1014,4 19 21 0,0
24.05.2018 19:00:00 20,8 12,5 22,2 15,3 12,4 5 3 15 8 N 1014,3 19 25 0,0
24.05.2018 18:00:00 21,4 11,4 22,3 15,2 12,4 8 4 14 7 NNW 1014,4 19 7 0,0
24.05.2018 17:00:00 20,5 11,7 23,5 15,1 12,4 8 4 14 8 NW 1014,7 19 27 0,0
24.05.2018 16:00:00 20,2 12,9 18,8 15,1 12,4 9 5 21 12 NNW 1015,0 17 10 0,0
24.05.2018 15:00:00 18,2 12,4 18,7 15,0 12,3 11 6 19 10 NNW 1015,8 19 1 0,0
24.05.2018 14:00:00 21,2 9,7 23,0 14,9 12,4 2 1 13 7 SSW 1015,2 20 18 0,0
24.05.2018 13:00:00 21,5 10,3 27,2 14,9 12,4 5 3 15 8 SE 1015,4 18 41 0,0
24.05.2018 12:00:00 21,2 11,8 27,6 15,0 12,4 6 3 25 14 ESE 1015,7 18 58 0,0
24.05.2018 11:00:00 20,2 12,4 25,4 15,0 12,3 6 4 16 9 SE 1015,9 19 58 0,0
24.05.2018 10:00:00 19,0 12,7 23,0 15,0 12,3 7 4 13 7 SE 1016,4 17 60 0,0
24.05.2018 09:00:00 16,2 11,6 15,0 15,1 12,3 6 4 16 8 E 1017,0 16 60 0,0
24.05.2018 08:00:00 12,3 9,3 9,1 15,2 12,3 10 5 16 9 E 1018,1 17 60 0,0
24.05.2018 07:00:00 9,7 8,0 6,8 15,2 12,3 10 5 15 8 E 1018,6 17 22 0,0
24.05.2018 06:00:00 9,0 7,6 6,7 15,3 12,3 11 6 15 8 E 1018,6 18 0 0,0
24.05.2018 05:00:00 9,2 7,1 7,0 15,3 12,3 10 5 16 9 E 1018,7 19 0 0,0
24.05.2018 04:00:00 9,9 7,5 6,8 15,4 12,3 13 7 17 9 E 1018,6 20 0 0,0
24.05.2018 03:00:00 9,6 7,2 7,2 15,4 12,3 10 6 15 8 E 1018,8 19 0 0,0
24.05.2018 02:00:00 10,0 7,6 7,5 15,4 12,3 10 5 16 9 E 1018,9 19 0 0,0
24.05.2018 01:00:00 10,9 7,8 8,0 15,4 12,3 10 5 13 7 E 1019,0 59 0 0,0
24.05.2018 00:00:00 11,6 7,9 9,6 15,4 12,3 11 6 15 8 E 1018,8 60 0 0,0
23.05.2018 23:00:00 12,5 8,6 9,2 15,4 12,3 10 5 14 8 E 1018,5 19 0 0,0
23.05.2018 22:00:00 14,0 9,6 10,1 15,3 12,3 7 4 9 5 E 1017,5 60 0 0,0
23.05.2018 21:00:00 17,7 7,7 14,0 15,3 12,3 0 0 10 5 N 1016,2 20 49 0,0
23.05.2018 20:00:00 19,4 8,4 18,4 15,2 12,3 3 2 14 8 E 1015,5 20 32 0,0
23.05.2018 19:00:00 19,7 8,1 18,9 15,1 12,3 9 5 18 10 NE 1015,2 19 33 0,0
23.05.2018 18:00:00 18,2 12,2 18,2 15,0 12,3 6 4 21 11 SW 1015,6 58 24 0,0
23.05.2018 17:00:00 16,0 11,4 15,6 14,9 12,2 8 4 17 9 WNW 1016,4 19 0 0,2
23.05.2018 16:00:00 16,6 8,0 14,4 14,9 12,3 6 4 24 13 NNE 1016,6 19 2 0,2
23.05.2018 15:00:00 20,0 9,8 22,9 14,8 12,3 9 5 19 11 NW 1015,6 20 25 0,0
23.05.2018 14:00:00 20,0 10,7 27,4 14,8 12,3 8 5 17 9 NW 1016,0 19 60 0,0
23.05.2018 13:00:00 18,8 12,1 26,4 14,8 12,2 7 4 19 11 WNW 1016,5 19 60 0,0
23.05.2018 12:00:00 17,8 10,4 21,8 14,8 12,2 7 4 14 8 NW 1017,0 17 40 0,0
23.05.2018 11:00:00 17,0 10,6 14,3 14,8 12,2 3 2 8 4 SE 1017,2 18 34 0,2
23.05.2018 10:00:00 13,7 11,7 13,8 14,9 12,2 6 3 12 7 SW 1018,0 8 0 0,4
23.05.2018 09:00:00 12,7 11,4 11,6 14,9 12,2 4 2 10 5 ENE 1017,9 15 0 0,0
23.05.2018 08:00:00 11,4 10,3 10,5 15,0 12,2 6 3 9 5 ENE 1018,0 16 0 0,0
23.05.2018 07:00:00 10,9 9,8 9,5 15,0 12,2 6 3 11 6 E 1017,3 16 0 0,0
23.05.2018 06:00:00 10,5 9,7 8,9 15,1 12,2 7 4 9 5 E 1017,0 16 0 0,0
23.05.2018 05:00:00 10,6 9,8 9,3 15,1 12,2 3 2 12 6 SE 1017,1 17 0 0,0
23.05.2018 04:00:00 10,5 10,0 9,2 15,2 12,2 6 4 9 5 E 1016,9 12 0 0,0
23.05.2018 03:00:00 10,1 9,6 8,0 15,2 12,2 4 2 6 4 E 1017,4 12 0 0,0
23.05.2018 02:00:00 10,9 10,0 6,8 15,2 12,2 3 2 5 3 ESE 1017,1 16 0 0,0
23.05.2018 01:00:00 11,5 10,2 8,2 15,2 12,2 5 3 11 6 SE 1017,2 18 0 0,0
23.05.2018 00:00:00 12,9 10,8 9,2 15,2 12,2 3 2 9 5 E 1016,8 20 0 0,0
22.05.2018 23:00:00 13,7 11,0 8,7 15,2 12,2 2 1 4 2 E 1016,2 20 0 0,0
22.05.2018 22:00:00 15,2 11,2 13,5 15,1 12,2 3 2 9 5 NW 1015,2 60 0 0,0
22.05.2018 21:00:00 16,4 11,1 15,0 15,1 12,2 4 2 7 4 WNW 1014,5 57 10 0,0
22.05.2018 20:00:00 17,4 10,0 16,9 15,0 12,2 4 2 13 7 WNW 1013,7 60 3 0,0
22.05.2018 19:00:00 17,9 9,3 18,8 14,9 12,2 8 4 21 11 N 1013,3 20 4 0,0
22.05.2018 18:00:00 18,1 10,2 19,6 14,8 12,2 13 7 21 12 N 1013,0 19 15 0,0
22.05.2018 17:00:00 17,6 10,9 19,7 14,7 12,2 9 5 22 12 W 1013,0 20 0 0,0
22.05.2018 16:00:00 18,5 12,0 21,7 14,6 12,1 15 8 22 12 WSW 1012,6 20 18 0,0
22.05.2018 15:00:00 18,1 12,3 21,2 14,6 12,1 15 8 25 13 W 1012,8 19 23 0,0
22.05.2018 14:00:00 18,2 11,3 22,3 14,6 12,2 10 6 21 11 W 1012,8 19 11 0,0
22.05.2018 13:00:00 17,8 11,6 22,7 14,6 12,2 10 5 21 11 WNW 1013,1 17 51 0,0
22.05.2018 12:00:00 17,2 12,3 22,5 14,6 12,2 13 7 20 11 W 1013,2 19 50 0,0

tt = Température de l'air
td = dewpoint
tt 5cm = Température de l'air 5cm
tt -20cm = Température de l'air -20cm
tt -100cm = Température de l'air -100cm
ff = Vitesse du vent
fx = gusts
dd = Direction du vent
ppp = reduced air pressure
vv = visibility
sd = Ensoleillement
rr = Quantités de précipitations

stations d'obs. à proximité